Regional Weather Roundup
Issued by NWS

Home | Current Version | Previous Version | Graphics & Text | Print | Product List | Glossary On
Versions: 1 2 3 4 5 6 7 8 9 10 11 12 13 14 15 16 17 18 19 20 21 22 23 24 25 26 27 28 29 30 31 32 33 34 35 36 37 38 39 40 41 42 43 44 45 46 47 48 49 50
220
ASUS45 KCYS 191710
RWRWY

WYOMING REGIONAL WEATHER ROUNDUP
NATIONAL WEATHER SERVICE CHEYENNE WY
1000 AM MST FRI JAN 19 2018

NOTE:  "FAIR" INDICATES FEW OR NO CLOUDS BELOW 12,000 FEET
WITH NO SIGNIFICANT WEATHER AND/OR OBSTRUCTIONS TO VISIBILITY.

WYZ001-191800-
YELLOWSTONE NATIONAL PARK

CITY           SKY/WX    TMP DP  RH WIND       PRES   REMARKS
LK YELLOWSTONE   N/A     27  25  92 VRB7      29.77R WCI  19
W YELLOWSTONE  NOT AVBL

$$
WYZ002>013-054>058-071-098>099-191800-
NORTHERN WYOMING

CITY           SKY/WX    TMP DP  RH WIND       PRES   REMARKS
JACKSON        LGT RAIN  35  28  75 S16       29.77R WCI  25
CODY           MIX PCPN  33  32  96 SE3       29.72R
GREYBULL       PTSUNNY   31  27  85 CALM      29.70R
WORLAND        FAIR      34  29  82 S6        29.70R WCI  29
SHERIDAN       CLOUDY    36  33  89 S6        29.71S WCI  31
BUFFALO        CLOUDY    37  32  82 S3        29.73R
GILLETTE       FAIR      36  30  79 CALM      29.72S
HULETT         PTSUNNY   34  30  86 CALM      29.73S
NEWCASTLE      FAIR      37  25  60 SW3       29.71R

$$
WYZ014>020-022>026-101>103-191800-
CENTRAL WYOMING

CITY           SKY/WX    TMP DP  RH WIND       PRES   REMARKS
BIG PINEY      FAIR      38  29  70 CALM      29.79S
PINEDALE       FAIR      27  21  80 CALM      29.81S
DUBOIS         PTSUNNY   41  28  60 N12G24    29.70R
LANDER         FAIR      48  28  46 SW17G24   29.67R
RIVERTON       FAIR      39  24  55 S5        29.69R
CASPER         FAIR      47  21  35 SW25G31   29.73R
DOUGLAS        FAIR      51  24  34 CALM      29.72R

$$
WYZ021-027>030-104>119-191800-
SOUTHERN WYOMING

CITY           SKY/WX    TMP DP  RH WIND       PRES   REMARKS
EVANSTON       CLOUDY    43  28  55 SW20G28   29.84R
FORT BRIDGER   FAIR      50  27  40 W22G30    29.84S
ROCK SPRINGS   FAIR      40  22  48 S6        29.83R
DIXON            N/A     43  14  30 SW13G18   29.95R
RAWLINS        LGT RAIN  43  17  35 SW36G47   29.82R
SARATOGA       FAIR      46  19  34 SW31G39   29.85F
LARAMIE        FAIR      43  18  36 S16       29.84R
CHEYENNE       FAIR      51  19  28 W5        29.82R
TORRINGTON     FAIR      42  28  57 SE7       29.73S

$$




USA.gov is the U.S. government's official web portal to all federal, state and local government web resources and services.